map of BWN home
Great Circle Mapper logo
BWN - Airport
Location
City:  Bandar Seri Begwan, Brunei Darussalam
Name:Bandar Seri Begwan International Airport
ICAO / IATA:WBSB / BWN

Details
Type:Airport (Aerodrome, Airfield)
Use:Public/Civil, International (customs port of entry)
Latitude:456'39"N (4.944200)
Longitude:11455'42"E (114.928353)
Datum:WGS 1984
Elevation:73 ft (22 m)
Runways:1
Longest:12000 × 150 ft (3658 × 45.5 m), paved

Time
Time Zone:UTC+8
Local Time:

Weather
METAR:WBSB 200600Z 33007KT 9999 FEW016 FEW017CB BKN300 31/24 Q1010 NOSIG
TAF:WBSB 192300Z 2000/2106 20003KT 9999 FEW015 FEW016CB
TEMPO 2000/2001 6000 SHRA
BECMG 2002/2004 28010KT SCT016 FEW017CB

Related Locations
Nearby:
Farthest:SWUY: 12431 mi / 20006 km
Coari [Urucu], AM, BR

Find:

   beyond  
but within

Other Information
Maps:
NOTAMs:
Links:
Sources:

  
flag of Brunei Darussalam   

Sectional Chart

Flight Planning
at skyvector.com

Satellite Image

Google Maps Satellite View

 

Copyright © 2004-2014 Karl L. Swartz. All rights reserved.
The Great Circle Mapper name and logo are trademarks of the Great Circle Mapper.
All other trademarks mentioned herein belong to their respective owners.
Please see credits for attibutions and further copyright information.

  Follow gcmap on Facebook Follow gcmap on Twitter

hCard Microformat

Geo Microformat